When you browse on this site, cookies collect data to enhance your experience and personalize the content and advertising you see.
Visit our Privacy Policy to learn more. By continuing to use the site, you agree to this use of cookies and data.
  • în România
  • Lista ţărilor
  • Pe 7 zile
  • Temperatura apei
  • Meteo pe hartă
  • Widget-uri
  • user-avatar
    Intrare

    Meteo pe oră la Saint-Gratien

    Astăzi, 22 August, Joi

    Timp Temperatura Precipitaţii Vânt Presiune Umiditate
    00:00 +16°C° 0 mm 0 m/s 765 mmHg 47%
    01:00 +18°C° 0 mm 1 m/s 764 mmHg 48%
    02:00 +16°C° 0 mm 1 m/s 764 mmHg 48%
    03:00 +16°C° 0 mm 1 m/s 764 mmHg 48%
    04:00 +16°C° 0 mm 1 m/s 764 mmHg 49%
    05:00 +16°C° 0 mm 1 m/s 764 mmHg 50%
    06:00 +16°C° 0 mm 1 m/s 764 mmHg 50%
    07:00 +19°C° 0 mm 1 m/s 765 mmHg 46%
    08:00 +21°C° 0 mm 1 m/s 765 mmHg 41%
    09:00 +23°C° 0 mm 1 m/s 765 mmHg 36%
    10:00 +25°C° 0 mm 1 m/s 765 mmHg 35%
    11:00 +26°C° 0 mm 1 m/s 765 mmHg 33%
    12:00 +27°C° 0 mm 2 m/s 764 mmHg 31%
    13:00 +27°C° 0 mm 2 m/s 764 mmHg 30%
    14:00 +28°C° 0 mm 2 m/s 764 mmHg 29%
    15:00 +28°C° 0 mm 2 m/s 764 mmHg 28%
    16:00 +27°C° 0 mm 2 m/s 764 mmHg 32%
    17:00 +26°C° 0 mm 2 m/s 763 mmHg 36%
    18:00 +25°C° 0 mm 2 m/s 763 mmHg 40%
    19:00 +24°C° 0 mm 2 m/s 764 mmHg 43%
    20:00 +23°C° 0 mm 2 m/s 764 mmHg 47%
    21:00 +20°C° 0 mm 2 m/s 765 mmHg 51%
    22:00 +19°C° 0 mm 2 m/s 764 mmHg 55%
    23:00 +19°C° 0 mm 2 m/s 764 mmHg 58%

    Mâine, 23 August, Vineri

    Timp Temperatura Precipitaţii Vânt Presiune Umiditate
    00:00 +18°C° 0 mm 2 m/s 764 mmHg 61%
    01:00 +17°C° 0 mm 2 m/s 764 mmHg 62%
    02:00 +17°C° 0 mm 2 m/s 764 mmHg 64%
    03:00 +16°C° 0 mm 2 m/s 764 mmHg 65%
    04:00 +17°C° 0 mm 2 m/s 763 mmHg 65%
    05:00 +17°C° 0 mm 2 m/s 763 mmHg 65%
    06:00 +18°C° 0 mm 1 m/s 763 mmHg 65%
    07:00 +19°C° 0 mm 2 m/s 763 mmHg 59%
    08:00 +21°C° 0 mm 2 m/s 764 mmHg 53%
    09:00 +24°C° 0 mm 2 m/s 764 mmHg 47%
    10:00 +25°C° 0 mm 2 m/s 763 mmHg 44%
    11:00 +27°C° 0 mm 2 m/s 763 mmHg 40%
    12:00 +28°C° 0 mm 3 m/s 762 mmHg 37%
    13:00 +29°C° 0 mm 3 m/s 762 mmHg 35%
    14:00 +29°C° 0 mm 3 m/s 762 mmHg 33%
    15:00 +30°C° 0 mm 3 m/s 761 mmHg 31%
    16:00 +29°C° 0 mm 3 m/s 761 mmHg 35%
    17:00 +28°C° 0 mm 3 m/s 761 mmHg 39%
    18:00 +27°C° 0 mm 3 m/s 760 mmHg 43%
    19:00 +26°C° 0 mm 3 m/s 761 mmHg 46%
    20:00 +24°C° 0 mm 2 m/s 761 mmHg 50%
    21:00 +23°C° 0 mm 2 m/s 761 mmHg 54%
    22:00 +21°C° 0 mm 2 m/s 761 mmHg 56%
    23:00 +21°C° 0 mm 2 m/s 760 mmHg 58%

    Poimâine, 24 August, Sâmbătă

    Timp Temperatura Precipitaţii Vânt Presiune Umiditate
    00:00 +20°C° 0 mm 2 m/s 760 mmHg 61%
    01:00 +21°C° 0 mm 1 m/s 760 mmHg 63%
    02:00 +20°C° 0 mm 1 m/s 760 mmHg 66%
    03:00 +20°C° 0 mm 1 m/s 759 mmHg 68%
    04:00 +20°C° 0 mm 1 m/s 759 mmHg 70%
    05:00 +20°C° 0 mm 1 m/s 759 mmHg 71%
    06:00 +20°C° 0 mm 1 m/s 759 mmHg 73%
    07:00 +21°C° 0 mm 2 m/s 759 mmHg 66%
    08:00 +24°C° 0 mm 2 m/s 759 mmHg 59%
    09:00 +26°C° 0 mm 2 m/s 759 mmHg 53%
    10:00 +27°C° 0 mm 2 m/s 759 mmHg 47%
    11:00 +29°C° 0 mm 2 m/s 759 mmHg 40%
    12:00 +31°C° 0 mm 2 m/s 758 mmHg 34%
    13:00 +31°C° 0 mm 1 m/s 758 mmHg 32%
    14:00 +32°C° 0 mm 1 m/s 758 mmHg 29%
    15:00 +33°C° 0 mm 1 m/s 757 mmHg 26%
    16:00 +32°C° 0 mm 1 m/s 757 mmHg 28%
    17:00 +30°C° 0 mm 1 m/s 757 mmHg 31%
    18:00 +29°C° 0 mm 1 m/s 756 mmHg 33%
    19:00 +28°C° 0 mm 1 m/s 757 mmHg 37%
    20:00 +27°C° 0 mm 1 m/s 757 mmHg 41%
    21:00 +25°C° 0 mm 2 m/s 757 mmHg 44%
    22:00 +25°C° 0 mm 2 m/s 757 mmHg 47%
    23:00 +24°C° 0 mm 1 m/s 757 mmHg 50%

    25 August, Duminică

    Timp Temperatura Precipitaţii Vânt Presiune Umiditate
    00:00 +23°C° 0 mm 1 m/s 757 mmHg 53%
    01:00 +23°C° 0 mm 1 m/s 757 mmHg 55%
    02:00 +22°C° 0 mm 1 m/s 757 mmHg 58%
    03:00 +22°C° 0 mm 1 m/s 757 mmHg 60%
    04:00 +22°C° 0 mm 1 m/s 757 mmHg 60%
    05:00 +22°C° 0 mm 1 m/s 757 mmHg 60%
    06:00 +22°C° 0 mm 1 m/s 757 mmHg 61%
    07:00 +24°C° 0 mm 1 m/s 757 mmHg 53%
    08:00 +26°C° 0 mm 1 m/s 757 mmHg 46%
    09:00 +29°C° 0 mm 1 m/s 757 mmHg 39%
    10:00 +30°C° 0 mm 1 m/s 757 mmHg 34%
    11:00 +32°C° 0 mm 1 m/s 757 mmHg 29%
    12:00 +34°C° 0 mm 1 m/s 757 mmHg 25%
    13:00 +35°C° 0 mm 1 m/s 757 mmHg 23%
    14:00 +33°C° 0 mm 0 m/s 757 mmHg 22%
    15:00 +34°C° 0 mm 0 m/s 757 mmHg 20%
    16:00 +34°C° 0 mm 1 m/s 757 mmHg 23%
    17:00 +33°C° 0 mm 1 m/s 757 mmHg 26%
    18:00 +32°C° 0 mm 1 m/s 757 mmHg 29%
    19:00 +30°C° 0 mm 2 m/s 758 mmHg 34%
    20:00 +28°C° 0 mm 2 m/s 758 mmHg 39%
    21:00 +27°C° 0 mm 2 m/s 759 mmHg 45%
    22:00 +26°C° 0 mm 2 m/s 759 mmHg 46%
    23:00 +25°C° 0 mm 1 m/s 759 mmHg 48%

    26 August, Luni

    Timp Temperatura Precipitaţii Vânt Presiune Umiditate
    00:00 +25°C° 0 mm 1 m/s 759 mmHg 50%
    01:00 +24°C° 0 mm 1 m/s 759 mmHg 52%
    02:00 +24°C° 0 mm 1 m/s 759 mmHg 54%
    03:00 +23°C° 0 mm 1 m/s 759 mmHg 56%
    04:00 +23°C° 0 mm 1 m/s 759 mmHg 57%
    05:00 +23°C° 0 mm 1 m/s 759 mmHg 58%
    06:00 +23°C° 0 mm 1 m/s 759 mmHg 60%
    07:00 +24°C° 0 mm 2 m/s 760 mmHg 55%
    08:00 +26°C° 0 mm 2 m/s 760 mmHg 50%
    09:00 +28°C° 0 mm 2 m/s 760 mmHg 44%
    10:00 +30°C° 0 mm 2 m/s 760 mmHg 40%
    11:00 +32°C° 0 mm 2 m/s 760 mmHg 36%
    12:00 +34°C° 0 mm 2 m/s 759 mmHg 32%
    13:00 +35°C° 0 mm 2 m/s 759 mmHg 31%
    14:00 +35°C° 0 mm 3 m/s 759 mmHg 29%
    15:00 +36°C° 0 mm 3 m/s 758 mmHg 28%
    16:00 +34°C° 0 mm 3 m/s 758 mmHg 31%
    17:00 +33°C° 0 mm 3 m/s 758 mmHg 35%
    18:00 +31°C° 0 mm 3 m/s 758 mmHg 39%
    19:00 +30°C° 0 mm 2 m/s 758 mmHg 42%
    20:00 +28°C° 0 mm 2 m/s 759 mmHg 45%
    21:00 +27°C° 0 mm 2 m/s 759 mmHg 49%
    22:00 +26°C° 0 mm 2 m/s 759 mmHg 52%
    23:00 +26°C° 0 mm 2 m/s 759 mmHg 54%

    27 August, Marţi

    Timp Temperatura Precipitaţii Vânt Presiune Umiditate
    00:00 +25°C° 0 mm 2 m/s 758 mmHg 57%
    01:00 +24°C° 0 mm 2 m/s 758 mmHg 58%
    02:00 +24°C° 0 mm 2 m/s 758 mmHg 59%
    03:00 +24°C° 0 mm 2 m/s 757 mmHg 61%
    04:00 +24°C° 0 mm 2 m/s 757 mmHg 61%
    05:00 +23°C° 0 mm 1 m/s 758 mmHg 62%
    06:00 +23°C° 0 mm 1 m/s 758 mmHg 63%
    07:00 +25°C° 0 mm 1 m/s 758 mmHg 57%
    08:00 +27°C° 0 mm 2 m/s 757 mmHg 52%
    09:00 +29°C° 0 mm 2 m/s 757 mmHg 47%
    10:00 +31°C° 0 mm 2 m/s 757 mmHg 42%
    11:00 +33°C° 0 mm 3 m/s 757 mmHg 37%
    12:00 +35°C° 0 mm 3 m/s 756 mmHg 32%
    13:00 +35°C° 0 mm 3 m/s 756 mmHg 32%
    14:00 +35°C° 0 mm 3 m/s 755 mmHg 31%
    15:00 +35°C° 0 mm 3 m/s 755 mmHg 30%
    16:00 +34°C° 0 mm 3 m/s 754 mmHg 33%
    17:00 +33°C° 0 mm 3 m/s 754 mmHg 36%
    18:00 +31°C° 0 mm 3 m/s 754 mmHg 39%
    19:00 +30°C° 0 mm 2 m/s 755 mmHg 41%
    20:00 +29°C° 0 mm 2 m/s 755 mmHg 44%
    21:00 +28°C° 0 mm 2 m/s 755 mmHg 46%
    22:00 +27°C° 0 mm 2 m/s 755 mmHg 48%
    23:00 +26°C° 0 mm 1 m/s 755 mmHg 49%
    Arată mai mult